Location: ????
(55.5675°N, 37.6272°E)
Time: 22:41:02
(UTC+00:00)

IRS-1C Rocket - Pass Details

Date: 14 April 2026
Orbit: 799 x 804 km, 98.7° (Epoch: 13 May)

Event Time Altitude Azimuth Distance (km) Brightness Sun altitude
Exits shadow 19:01:19 25° 175° (S) 1,570 5.1 -17.9°
Maximum altitude 19:04:26 72° 255° (WSW) 850 4.2 -18.1°
Drops below altitude 10° 19:09:45 10° 341° (NNW) 2,399 7.7 -18.6°
Sets 19:12:06 0° 343° (NNW) 3,334 8.6 -18.8°
